| time (UTC) | temp F | wind direction | speed MPH | gust MPH | rain 1hr in | rain 24hr in | rain mn in | humidity % | barometer mb |
| 20260507080005 | 62 | 53 | 0.0 | 4.0 | 0.00 | 0.00 | 0.00 | 54 | 1010.0 |
| 20260507074502 | 62 | 333 | 0.0 | 4.0 | 0.00 | 0.00 | 0.00 | 55 | 1010.2 |
| 20260507073100 | 61 | 47 | 0.0 | 6.0 | 0.00 | 0.00 | 0.00 | 56 | 1010.1 |
| 20260507071606 | 60 | 34 | 0.0 | 5.0 | 0.00 | 0.00 | 0.00 | 57 | 1010.0 |
| 20260507070055 | 60 | 54 | 0.0 | 1.0 | 0.00 | 0.00 | 0.00 | 57 | 1009.8 |
| 20260507064607 | 59 | 46 | 0.0 | 3.0 | 0.00 | 0.00 | 0.00 | 58 | 1009.6 |
| 20260507063056 | 59 | 61 | 0.0 | 2.0 | 0.00 | 0.00 | 0.00 | 59 | 1009.6 |
| 20260507061551 | 58 | 28 | 0.0 | 2.0 | 0.00 | 0.00 | 0.00 | 60 | 1009.7 |
| 20260507060050 | 58 | 85 | 0.0 | 0.0 | 0.00 | 0.00 | 0.00 | 61 | 1009.4 |
| 20260507054548 | 58 | 85 | 0.0 | 3.0 | 0.00 | 0.00 | 0.00 | 60 | 1009.3 |
| 20260507053045 | 58 | 23 | 0.0 | 6.0 | 0.00 | 0.00 | 0.00 | 61 | 1009.2 |
| 20260507051539 | 57 | 23 | 0.0 | 5.0 | 0.00 | 0.00 | 0.00 | 61 | 1009.1 |
| 20260507050040 | 57 | 34 | 0.0 | 2.0 | 0.00 | 0.00 | 0.00 | 61 | 1008.9 |
| 20260507044534 | 57 | 355 | 0.0 | 5.0 | 0.00 | 0.00 | 0.00 | 61 | 1008.8 |
| 20260507043032 | 57 | 5 | 0.0 | 4.0 | 0.00 | 0.00 | 0.00 | 62 | 1008.7 |
| 20260507041546 | 57 | 41 | 0.0 | 0.0 | 0.00 | 0.00 | 0.00 | 61 | 1008.6 |
| 20260507040028 | 57 | 11 | 0.0 | 3.0 | 0.00 | 0.00 | 0.00 | 62 | 1008.4 |
| 20260507034527 | 56 | 355 | 0.0 | 3.0 | 0.00 | 0.00 | 0.00 | 63 | 1008.4 |
| 20260507033031 | 56 | 69 | 0.0 | 0.0 | 0.00 | 0.00 | 0.00 | 64 | 1008.4 |
| 20260507031525 | 56 | 69 | 0.0 | 0.0 | 0.00 | 0.00 | 0.00 | 63 | 1008.4 |
| 20260507030025 | 56 | 69 | 0.0 | 2.0 | 0.00 | 0.00 | 0.00 | 63 | 1008.4 |
| 20260507024523 | 56 | 21 | 0.0 | 2.0 | 0.00 | 0.00 | 0.00 | 63 | 1008.3 |
| 20260507023021 | 57 | 360 | 0.0 | 3.0 | 0.00 | 0.00 | 0.00 | 61 | 1008.3 |
| 20260507021520 | 57 | 59 | 0.0 | 2.0 | 0.00 | 0.00 | 0.00 | 62 | 1008.3 |
| 20260507020021 | 58 | 57 | 0.0 | 2.0 | 0.00 | 0.00 | 0.00 | 61 | 1008.2 |
| 20260507014525 | 57 | 36 | 0.0 | 4.0 | 0.00 | 0.00 | 0.00 | 61 | 1008.3 |
| 20260507013034 | 57 | 74 | 0.0 | 5.0 | 0.00 | 0.00 | 0.00 | 61 | 1008.2 |
| 20260507011530 | 58 | 21 | 0.0 | 2.0 | 0.00 | 0.00 | 0.00 | 61 | 1008.3 |
| 20260507010013 | 59 | 26 | 0.0 | 4.0 | 0.00 | 0.00 | 0.00 | 59 | 1008.2 |
| 20260507004516 | 59 | 355 | 1.0 | 6.0 | 0.00 | 0.00 | 0.00 | 58 | 1008.2 |
| 20260507003011 | 59 | 13 | 0.0 | 3.0 | 0.00 | 0.00 | 0.00 | 58 | 1008.2 |
| 20260507001511 | 59 | 47 | 1.0 | 5.0 | 0.00 | 0.00 | 0.00 | 58 | 1008.3 |
| 20260507000022 | 59 | 63 | 0.0 | 6.0 | 0.00 | 0.00 | 0.00 | 58 | 1008.5 |
| 20260506234509 | 59 | 30 | 1.0 | 6.0 | 0.00 | 0.00 | 0.00 | 59 | 1008.5 |
| 20260506233008 | 59 | 70 | 0.0 | 5.0 | 0.00 | 0.00 | 0.00 | 57 | 1008.5 |
| 20260506231505 | 60 | 36 | 0.0 | 5.0 | 0.00 | 0.00 | 0.00 | 57 | 1008.4 |
| 20260506230004 | 60 | 31 | 1.0 | 5.0 | 0.00 | 0.00 | 0.00 | 56 | 1008.4 |
| 20260506224501 | 61 | 9 | 1.0 | 5.0 | 0.00 | 0.00 | 0.00 | 56 | 1008.3 |
| 20260506223126 | 61 | 5 | 0.0 | 3.0 | 0.00 | 0.00 | 0.00 | 55 | 1008.2 |
| 20260506221603 | 62 | 49 | 0.0 | 4.0 | 0.00 | 0.00 | 0.00 | 55 | 1008.0 |
| 20260506220057 | 62 | 53 | 0.0 | 5.0 | 0.00 | 0.00 | 0.00 | 54 | 1007.9 |
| 20260506214607 | 62 | 81 | 1.0 | 9.0 | 0.00 | 0.00 | 0.00 | 54 | 1007.9 |
| 20260506213055 | 62 | 42 | 1.0 | 11.0 | 0.00 | 0.00 | 0.00 | 54 | 1008.0 |
| 20260506211556 | 62 | 5 | 0.0 | 3.0 | 0.00 | 0.00 | 0.00 | 54 | 1007.9 |
| 20260506210057 | 62 | 355 | 0.0 | 2.0 | 0.00 | 0.00 | 0.00 | 53 | 1007.8 |
| 20260506204552 | 62 | 37 | 0.0 | 5.0 | 0.00 | 0.00 | 0.00 | 53 | 1007.6 |
| 20260506203100 | 62 | 36 | 1.0 | 5.0 | 0.00 | 0.00 | 0.00 | 53 | 1007.6 |
| 20260506201551 | 62 | 5 | 0.0 | 5.0 | 0.00 | 0.00 | 0.00 | 53 | 1007.4 |
| 20260506200130 | 62 | 35 | 0.0 | 4.0 | 0.00 | 0.00 | 0.00 | 53 | 1007.5 |
| 20260506194550 | 62 | 59 | 0.0 | 0.0 | 0.00 | 0.00 | 0.00 | 53 | 1007.4 |
| 20260506193051 | 62 | 59 | 0.0 | 11.0 | 0.00 | 0.00 | 0.00 | 52 | 1007.2 |
| 20260506191549 | 62 | 51 | 0.0 | 4.0 | 0.00 | 0.00 | 0.00 | 52 | 1007.1 |
| 20260506190048 | 62 | 14 | 0.0 | 4.0 | 0.00 | 0.00 | 0.00 | 51 | 1006.8 |
| 20260506184648 | 62 | 344 | 1.0 | 5.0 | 0.00 | 0.00 | 0.00 | 51 | 1006.6 |
| 20260506183047 | 62 | 17 | 0.0 | 9.0 | 0.00 | 0.00 | 0.00 | 52 | 1006.5 |
| 20260506181546 | 63 | 51 | 0.0 | 3.0 | 0.00 | 0.00 | 0.00 | 52 | 1006.5 |
| 20260506180051 | 64 | 40 | 0.0 | 9.0 | 0.00 | 0.00 | 0.00 | 52 | 1006.3 |
| 20260506174546 | 64 | 77 | 3.0 | 9.0 | 0.00 | 0.00 | 0.00 | 51 | 1006.3 |
| 20260506173050 | 64 | 84 | 0.0 | 5.0 | 0.00 | 0.00 | 0.00 | 51 | 1006.2 |
| 20260506171552 | 65 | 61 | 2.0 | 9.0 | 0.00 | 0.00 | 0.00 | 50 | 1006.2 |
| 20260506170044 | 65 | 72 | 1.0 | 11.0 | 0.00 | 0.00 | 0.00 | 50 | 1006.2 |
| 20260506164542 | 66 | 67 | 1.0 | 13.0 | 0.00 | 0.00 | 0.00 | 50 | 1006.3 |
| 20260506163047 | 67 | 38 | 1.0 | 10.0 | 0.00 | 0.00 | 0.00 | 49 | 1006.6 |
| 20260506161551 | 68 | 18 | 1.0 | 12.0 | 0.00 | 0.00 | 0.00 | 47 | 1006.6 |
| 20260506160037 | 69 | 28 | 1.0 | 13.0 | 0.00 | 0.00 | 0.00 | 45 | 1006.9 |
| 20260506154537 | 70 | 13 | 4.0 | 12.0 | 0.00 | 0.00 | 0.00 | 45 | 1006.9 |
| 20260506153038 | 69 | 47 | 4.0 | 13.0 | 0.00 | 0.00 | 0.00 | 46 | 1007.0 |
| 20260506151538 | 69 | 295 | 3.0 | 14.0 | 0.00 | 0.00 | 0.00 | 45 | 1007.0 |
| 20260506150036 | 70 | 360 | 3.0 | 14.0 | 0.00 | 0.00 | 0.00 | 43 | 1007.0 |
| 20260506144534 | 72 | 27 | 2.0 | 18.0 | 0.00 | 0.00 | 0.00 | 42 | 1007.1 |
| 20260506143033 | 72 | 38 | 6.0 | 17.0 | 0.00 | 0.00 | 0.00 | 42 | 1007.1 |
| 20260506141532 | 72 | 338 | 5.0 | 15.0 | 0.00 | 0.00 | 0.00 | 42 | 1007.0 |
| 20260506140032 | 71 | 81 | 5.0 | 16.0 | 0.00 | 0.00 | 0.00 | 42 | 1007.0 |
| 20260506134605 | 70 | 22 | 6.0 | 16.0 | 0.00 | 0.00 | 0.00 | 43 | 1007.3 |
| 20260506133031 | 72 | 346 | 5.0 | 14.0 | 0.00 | 0.00 | 0.00 | 39 | 1007.3 |
| 20260506131532 | 74 | 40 | 5.0 | 20.0 | 0.00 | 0.00 | 0.00 | 38 | 1007.1 |
| 20260506130028 | 74 | 329 | 4.0 | 13.0 | 0.00 | 0.00 | 0.00 | 39 | 1007.3 |
| 20260506124528 | 73 | 299 | 5.0 | 15.0 | 0.00 | 0.00 | 0.00 | 40 | 1007.4 |
| 20260506123026 | 73 | 355 | 5.0 | 11.0 | 0.00 | 0.00 | 0.00 | 38 | 1007.3 |
| 20260506121525 | 73 | 46 | 6.0 | 17.0 | 0.00 | 0.00 | 0.00 | 39 | 1007.6 |
| 20260506120025 | 73 | 17 | 8.0 | 15.0 | 0.00 | 0.00 | 0.00 | 38 | 1007.5 |
| 20260506114532 | 72 | 10 | 5.0 | 12.0 | 0.00 | 0.00 | 0.00 | 39 | 1007.4 |
| 20260506113026 | 74 | 335 | 4.0 | 11.0 | 0.00 | 0.00 | 0.00 | 38 | 1007.6 |
| 20260506111521 | 73 | 88 | 6.0 | 10.0 | 0.00 | 0.00 | 0.00 | 42 | 1007.7 |
| 20260506110019 | 71 | 355 | 5.0 | 13.0 | 0.00 | 0.00 | 0.00 | 42 | 1007.9 |
| 20260506104518 | 69 | 59 | 5.0 | 13.0 | 0.00 | 0.00 | 0.00 | 45 | 1007.9 |
| 20260506103025 | 68 | 9 | 4.0 | 13.0 | 0.00 | 0.00 | 0.00 | 45 | 1008.2 |
| 20260506101519 | 68 | 333 | 4.0 | 15.0 | 0.00 | 0.00 | 0.00 | 45 | 1008.3 |
| 20260506100028 | 68 | 21 | 3.0 | 16.0 | 0.00 | 0.00 | 0.00 | 45 | 1008.2 |
| 20260506094517 | 68 | 26 | 3.0 | 13.0 | 0.00 | 0.00 | 0.00 | 45 | 1008.3 |
| 20260506093015 | 69 | 5 | 3.0 | 9.0 | 0.00 | 0.00 | 0.00 | 43 | 1008.3 |
| 20260506091512 | 71 | 66 | 3.0 | 11.0 | 0.00 | 0.00 | 0.00 | 41 | 1008.3 |
| 20260506090012 | 72 | 5 | 6.0 | 13.0 | 0.00 | 0.00 | 0.00 | 37 | 1008.1 |
| 20260506084510 | 71 | 347 | 3.0 | 11.0 | 0.00 | 0.00 | 0.00 | 40 | 1008.0 |
| 20260506083010 | 72 | 343 | 4.0 | 13.0 | 0.00 | 0.00 | 0.00 | 38 | 1008.0 |
| 20260506081506 | 72 | 45 | 1.0 | 11.0 | 0.00 | 0.00 | 0.00 | 39 | 1008.0 |